Home > Weather > Simi Valley > Past weeks

Flag for USA Past Weather in Simi Valley, California, USA — Yesterday and Last 2 Weeks

Now
93 °F

Sunny.


Feels Like: 90 °F
Forecast: 67 / 89 °F
Wind: 8 mph from Southeast

Location: Van Nuys Airport

Current Time: Jul 29, 2016 at 7:03:58 PM

Latest Report: Jul 29, 2016 at 5:51 PM


Visibility: 10 mi

Pressure: 29.73 "Hg

Humidity: 26%

Dew Point: 53 °F

Location of Simi ValleyLocation

Past Weather in Simi Valley — Graph

°F

Simi Valley Temperature Yesterday

Maximum temperature yesterday: 96 °F (at 2:51 PM)
Minimum temperature yesterday: 71 °F (at 3:51 AM)
Average temperature yesterday: 83 °F

High & Low Weather Summary for the Past Weeks

 TemperatureHumidityPressure
High107 °F (Jul 22, 3:51 PM)97% (Jul 18, 5:51 AM)30.02 "Hg (Jul 18, 5:51 AM)
Low61 °F (Jul 17, 4:51 AM)6% (Jul 22, 10:51 PM)29.73 "Hg (Jul 29, 5:51 PM)
Average82 °F44%29.88 "Hg
* Reported Jul 14 5:51 PM — Jul 29 5:51 PM, Simi Valley, Weather by CustomWeather, © 2016

Note: Actual official high and low records may vary slightly from our data, if they occured in-between our weather recording intervals... More about our weather records

Advertising

Simi Valley Weather History for the Previous 24 Hours

Scroll right to see more
 ConditionsComfort  
Time TempWeatherWind HumidityBarometerVisibility
5:51 PM
Fri, Jul 29
93 °FSunny.8 mph26%29.73 "Hg10 mi
4:51 PM95 °FSunny.9 mph24%29.73 "Hg10 mi
3:51 PM97 °FSunny.10 mph24%29.74 "Hg10 mi
2:51 PM97 °FSunny.13 mph26%29.76 "Hg10 mi
1:51 PM96 °FSunny.12 mph27%29.78 "Hg10 mi
12:51 PM94 °FSunny.9 mph30%29.79 "Hg10 mi
11:51 AM95 °FSunny.9 mph31%29.80 "Hg10 mi
10:51 AM91 °FSunny.3 mph28%29.80 "Hg10 mi
9:51 AM86 °FSunny.3 mph36%29.81 "Hg10 mi
8:51 AM81 °FSunny.No wind44%29.83 "Hg10 mi
7:51 AM78 °FSunny.No wind50%29.83 "Hg10 mi
6:51 AM74 °FClear.No wind57%29.81 "Hg10 mi
5:51 AM73 °FClear.No wind59%29.80 "Hg10 mi
4:51 AM73 °FClear.No wind62%29.80 "Hg10 mi
3:51 AM75 °FClear.No wind55%29.80 "Hg10 mi
2:51 AM74 °FClear.3 mph60%29.81 "Hg10 mi
1:51 AM75 °FClear.5 mph54%29.81 "Hg10 mi
12:51 AM77 °FClear.6 mph54%29.81 "Hg10 mi
11:51 PM
Thu, Jul 28
79 °FClear.3 mph45%29.81 "Hg10 mi
10:51 PM79 °FClear.3 mph48%29.81 "Hg10 mi
9:51 PM80 °FClear.6 mph49%29.82 "Hg10 mi
8:51 PM83 °FSunny.6 mph34%29.81 "Hg10 mi
7:51 PM85 °FSunny.5 mph30%29.79 "Hg10 mi
Weather by CustomWeather, © 2016

See weather overviewHow to use our weather pages